Date String (YYYY-MM-DD hh:mm:ss) UTC,Instrument flags,absolute air pressure of the measurement (hPa),sample flow rate (lpm),inlet stack bypass flow (lpm),air temperature of the measurement (°C),ambient temperature measured by the external sensor (°C),aerosol sample conditioner tube jacket temperature (°C),OPC LED temperature (°C),internal box temperature (°C),relative humidity of the measurement (%),span deviation,mass concentration of particles derived from Lorenz-Mie calculation of OPC scattering (μg/m³),mass concentration of particles derived from Lorenz-Mie calculation of OPC scattering (μg/m³),mass concentration of particles derived from Lorenz-Mie calculation of OPC scattering (μg/m³)
DateTimeUTC,F1_M11,P_M11,Q1_M11,Q2_M11,T1_M11,T2_M11,T3_M11,T4_M11,T5_M11,U1_M11,ZSPAN_M11,X0_M11,X2_M11,X1_M11
2024-02-10 03:00:00,SystemResetWarning,0823.8,5.01,000.00,020.6,020.0,000.0,029.2,022.4,18.4,0000.0,0016.11,0004.39,0003.95
2024-02-10 03:01:00,SystemResetWarning,0823.8,5.00,000.00,020.6,020.0,000.0,029.2,022.4,18.4,0000.0,0015.08,0004.40,0003.96
2024-02-10 03:02:00,SystemResetWarning,0823.8,4.99,000.00,020.6,020.0,000.0,029.2,022.4,18.4,0000.0,0014.30,0004.38,0003.96
2024-02-10 03:03:00,SystemResetWarning,0823.8,5.00,000.00,020.6,020.0,000.0,029.2,022.4,18.4,0000.0,0014.17,0004.36,0003.95
2024-02-10 03:04:00,SystemResetWarning,0823.8,4.99,000.00,020.6,020.0,000.0,029.2,022.4,18.5,0000.0,0013.73,0004.38,0003.94
2024-02-10 03:05:00,SystemResetWarning,0823.8,5.00,000.00,020.6,020.0,000.0,029.2,022.4,18.7,0000.0,0013.53,0004.36,0003.94
2024-02-10 03:06:00,SystemResetWarning,0823.8,5.00,000.00,020.6,020.0,000.0,029.2,022.4,18.9,0000.0,0013.43,0004.35,0003.94
2024-02-10 03:07:00,SystemResetWarning,0823.8,5.00,000.00,020.6,020.0,000.0,029.2,022.4,19.1,0000.0,0013.46,0004.37,0003.94
2024-02-10 03:08:00,SystemResetWarning,0823.8,5.01,000.00,020.6,020.0,000.0,029.2,022.4,19.4,0000.0,0013.23,0004.41,0003.95
2024-02-10 03:09:00,SystemResetWarning,0823.8,5.01,000.00,020.6,020.0,000.0,029.1,022.4,19.6,0000.0,0012.86,0004.45,0003.96
2024-02-10 03:10:00,SystemResetWarning,0823.8,5.00,000.00,020.6,020.0,000.0,029.1,022.4,19.5,0000.0,0011.71,0004.44,0003.95
2024-02-10 03:11:00,SystemResetWarning,0823.8,5.00,000.00,020.6,020.0,000.0,029.1,022.4,19.5,0000.0,0011.24,0004.41,0003.94
2024-02-10 03:12:00,SystemResetWarning,0823.8,5.00,000.00,020.6,020.0,000.0,029.1,022.4,19.6,0000.0,0010.87,0004.38,0003.94
2024-02-10 03:13:00,SystemResetWarning,0823.9,4.99,000.00,020.6,020.0,000.0,029.1,022.4,19.7,0000.0,0010.72,0004.40,0003.95
2024-02-10 03:14:00,SystemResetWarning,0823.9,4.99,000.00,020.6,020.1,000.0,029.1,022.4,19.7,0000.0,0010.82,0004.41,0003.95
2024-02-10 03:15:00,SystemResetWarning,0823.9,5.00,000.00,020.6,020.1,000.0,029.1,022.4,19.9,0000.0,0010.76,0004.41,0003.97
2024-02-10 03:16:00,SystemResetWarning,0823.9,5.00,000.00,020.6,020.1,000.0,029.1,022.4,20.0,0000.0,0010.75,0004.43,0003.98
2024-02-10 03:17:00,SystemResetWarning,0823.9,5.00,000.00,020.6,020.1,000.0,029.1,022.4,20.2,0000.0,0010.55,0004.42,0003.99
2024-02-10 03:18:00,SystemResetWarning,0823.9,5.01,000.00,020.6,020.1,000.0,029.1,022.4,20.3,0000.0,0009.93,0004.38,0004.00
2024-02-10 03:19:00,SystemResetWarning,0823.9,5.01,000.00,020.6,020.0,000.0,029.1,022.4,20.4,0000.0,0009.81,0004.37,0003.99
2024-02-10 03:20:00,SystemResetWarning,0824.0,5.00,000.00,020.6,020.0,000.0,029.1,022.4,20.5,0000.0,0009.68,0004.36,0004.02
2024-02-10 03:21:00,SystemResetWarning,0824.0,5.00,000.00,020.6,020.0,000.0,029.1,022.4,20.6,0000.0,0009.42,0004.37,0004.04
2024-02-10 03:22:00,SystemResetWarning,0824.0,4.99,000.00,020.6,020.0,000.0,029.1,022.3,20.7,0000.0,0008.59,0004.46,0004.09
2024-02-10 03:23:00,SystemResetWarning,0823.9,5.00,000.00,020.5,020.0,000.0,029.1,022.3,20.7,0000.0,0008.51,0004.53,0004.15
2024-02-10 03:24:00,SystemResetWarning,0824.0,5.00,000.00,020.5,020.0,000.0,029.1,022.3,20.8,0000.0,0008.21,0004.56,0004.21
2024-02-10 03:25:00,SystemResetWarning,0824.0,5.00,000.00,020.5,020.0,000.0,029.1,022.3,20.9,0000.0,0007.89,0004.61,0004.28
2024-02-10 03:26:00,SystemResetWarning,0824.0,4.99,000.00,020.5,020.0,000.0,029.1,022.3,21.0,0000.0,0008.39,0004.65,0004.34
2024-02-10 03:27:00,SystemResetWarning,0824.0,5.00,000.00,020.5,020.0,000.0,029.1,022.3,21.1,0000.0,0008.40,0004.70,0004.41
2024-02-10 03:28:00,SystemResetWarning,0824.1,5.01,000.00,020.5,020.0,000.0,029.1,022.3,21.2,0000.0,0008.25,0004.75,0004.48
2024-02-10 03:29:00,SystemResetWarning,0824.1,5.01,000.00,020.5,020.0,000.0,029.1,022.3,21.3,0000.0,0008.54,0004.83,0004.55
2024-02-10 03:30:00,SystemResetWarning,0824.1,5.00,000.00,020.5,020.0,000.0,029.1,022.3,21.4,0000.0,0008.66,0004.91,0004.63
2024-02-10 03:31:00,SystemResetWarning,0824.1,5.00,000.00,020.5,020.0,000.0,029.1,022.3,21.4,0000.0,0008.76,0004.98,0004.69
2024-02-10 03:32:00,SystemResetWarning,0824.2,4.99,000.00,020.5,019.9,000.0,029.0,022.3,21.5,0000.0,0009.17,0005.03,0004.74
2024-02-10 03:33:00,SystemResetWarning,0824.1,5.00,000.00,020.5,019.9,000.0,029.0,022.2,21.7,0000.0,0009.41,0005.04,0004.77
2024-02-10 03:34:00,SystemResetWarning,0824.2,5.00,000.00,020.5,019.9,000.0,029.0,022.3,21.8,0000.0,0009.44,0005.06,0004.79
2024-02-10 03:35:00,SystemResetWarning,0824.2,5.00,000.00,020.5,019.9,000.0,029.0,022.2,22.0,0000.0,0009.42,0005.06,0004.80
2024-02-10 03:36:00,SystemResetWarning,0824.3,5.00,000.00,020.4,019.9,000.0,029.0,022.2,22.1,0000.0,0009.34,0005.08,0004.81
2024-02-10 03:37:00,SystemResetWarning,0824.3,5.01,000.00,020.4,019.9,000.0,029.0,022.2,22.2,0000.0,0008.81,0005.10,0004.81
2024-02-10 03:38:00,SystemResetWarning,0824.3,5.00,000.00,020.4,019.8,000.0,029.0,022.2,22.3,0000.0,0008.92,0005.12,0004.81
2024-02-10 03:39:00,SystemResetWarning,0824.3,5.01,000.00,020.4,019.8,000.0,029.0,022.1,22.4,0000.0,0008.91,0005.12,0004.79
2024-02-10 03:40:00,SystemResetWarning,0824.3,4.99,000.00,020.4,019.8,000.0,029.0,022.1,22.4,0000.0,0008.70,0005.08,0004.76
2024-02-10 03:41:00,SystemResetWarning,0824.3,4.99,000.00,020.4,019.8,000.0,029.0,022.1,22.4,0000.0,0008.76,0005.08,0004.73
2024-02-10 03:42:00,SystemResetWarning,0824.3,5.01,000.00,020.4,019.8,000.0,029.0,022.1,22.4,0000.0,0008.70,0005.02,0004.68
2024-02-10 03:43:00,SystemResetWarning,0824.3,5.00,000.00,020.3,019.8,000.0,028.9,022.1,22.4,0000.0,0008.42,0004.99,0004.64
2024-02-10 03:44:00,SystemResetWarning,0824.3,5.00,000.00,020.3,019.8,000.0,028.9,022.1,22.5,0000.0,0008.34,0004.99,0004.63
2024-02-10 03:45:00,SystemResetWarning,0824.2,5.00,000.00,020.3,019.8,000.0,028.9,022.1,22.5,0000.0,0008.55,0005.00,0004.66
2024-02-10 03:46:00,SystemResetWarning,0824.2,5.01,000.00,020.3,019.7,000.0,028.9,022.1,22.6,0000.0,0008.62,0005.06,0004.71
2024-02-10 03:47:00,SystemResetWarning,0824.3,4.99,000.00,020.3,019.7,000.0,028.9,022.0,22.6,0000.0,0008.70,0005.13,0004.78
2024-02-10 03:48:00,SystemResetWarning,0824.3,5.00,000.00,020.3,019.7,000.0,028.9,022.0,22.7,0000.0,0008.84,0005.22,0004.85
2024-02-10 03:49:00,SystemResetWarning,0824.3,5.00,000.00,020.3,019.7,000.0,028.9,022.0,22.7,0000.0,0009.47,0005.27,0004.92
2024-02-10 03:50:00,SystemResetWarning,0824.4,5.00,000.00,020.3,019.7,000.0,028.9,022.0,22.7,0000.0,0009.57,0005.36,0005.01
2024-02-10 03:51:00,SystemResetWarning,0824.4,5.00,000.00,020.3,019.7,000.0,028.9,022.0,22.7,0000.0,0009.74,0005.49,0005.14
2024-02-10 03:52:00,SystemResetWarning,0824.4,5.00,000.00,020.3,019.7,000.0,028.8,022.0,22.8,0000.0,0009.72,0005.58,0005.26
2024-02-10 03:53:00,SystemResetWarning,0824.4,5.01,000.00,020.3,019.7,000.0,028.8,022.0,22.8,0000.0,0010.03,0005.70,0005.37
2024-02-10 03:54:00,SystemResetWarning,0824.4,5.00,000.00,020.3,019.7,000.0,028.8,022.0,22.8,0000.0,0010.50,0005.86,0005.49
2024-02-10 03:55:00,SystemResetWarning,0824.4,5.00,000.00,020.2,019.7,000.0,028.8,022.0,22.9,0000.0,0010.40,0005.95,0005.59
2024-02-10 03:56:00,SystemResetWarning,0824.4,5.00,000.00,020.2,019.7,000.0,028.8,022.0,22.9,0000.0,0010.68,0006.01,0005.66
2024-02-10 03:57:00,SystemResetWarning,0824.4,5.00,000.00,020.2,019.7,000.0,028.8,022.0,22.9,0000.0,0010.82,0006.08,0005.69
2024-02-10 03:58:00,SystemResetWarning,0824.4,5.00,000.00,020.2,019.7,000.0,028.8,022.0,22.9,0000.0,0010.85,0006.10,0005.72
2024-02-10 03:59:00,SystemResetWarning,0824.4,5.00,000.00,020.2,019.7,000.0,028.8,022.0,22.9,0000.0,0010.75,0006.10,0005.75
